TimeEST,TemperatureF,Dew PointF,Humidity,Sea Level PressureIn,VisibilityMPH,Wind Direction,Wind SpeedMPH,Gust SpeedMPH,PrecipitationIn,Events,Conditions,WindDirDegrees,DateUTC
12:53 AM,24.1,23.0,96,30.39,5.0,Calm,Calm,-,N/A,,Clear,0,2013-01-09 05:53:00
1:53 AM,24.1,23.0,96,30.38,5.0,Calm,Calm,-,N/A,,Clear,0,2013-01-09 06:53:00
2:53 AM,23.0,21.9,96,30.39,5.0,Calm,Calm,-,N/A,,Clear,0,2013-01-09 07:53:00
3:53 AM,21.0,19.0,92,30.39,5.0,Calm,Calm,-,N/A,,Clear,0,2013-01-09 08:53:00
4:53 AM,21.0,19.0,92,30.38,6.0,Calm,Calm,-,N/A,,Clear,0,2013-01-09 09:53:00
5:53 AM,19.9,18.0,92,30.39,6.0,Calm,Calm,-,N/A,,Clear,0,2013-01-09 10:53:00
6:53 AM,19.0,17.1,92,30.39,6.0,Calm,Calm,-,N/A,,Clear,0,2013-01-09 11:53:00
7:53 AM,21.0,18.0,88,30.40,4.0,Calm,Calm,-,N/A,,Partly Cloudy,0,2013-01-09 12:53:00
8:53 AM,26.1,24.1,92,30.39,4.0,Calm,Calm,-,N/A,,Clear,0,2013-01-09 13:53:00
9:53 AM,30.0,27.0,88,30.38,4.0,Calm,Calm,-,N/A,,Clear,0,2013-01-09 14:53:00
10:53 AM,36.0,28.9,76,30.33,4.0,Calm,Calm,-,N/A,,Haze,0,2013-01-09 15:53:00
11:53 AM,39.9,30.0,68,30.29,6.0,Calm,Calm,-,N/A,,Haze,0,2013-01-09 16:53:00
12:53 PM,43.0,32.0,65,30.23,7.0,SSW,4.6,-,N/A,,Partly Cloudy,200,2013-01-09 17:53:00
1:53 PM,42.1,32.0,67,30.24,6.0,Calm,Calm,-,N/A,,Haze,0,2013-01-09 18:53:00
2:53 PM,43.0,32.0,65,30.15,6.0,South,6.9,-,0.00,Rain,Light Rain,170,2013-01-09 19:53:00
3:53 PM,43.0,32.0,65,30.14,6.0,SW,4.6,-,0.00,,Haze,230,2013-01-09 20:53:00
4:53 PM,43.0,32.0,65,30.15,7.0,WNW,5.8,-,N/A,,Overcast,290,2013-01-09 21:53:00
5:53 PM,42.1,32.0,67,30.13,7.0,WSW,11.5,-,N/A,,Clear,240,2013-01-09 22:53:00
6:53 PM,42.1,32.0,67,30.15,8.0,WSW,9.2,-,N/A,,Clear,250,2013-01-09 23:53:00
7:53 PM,41.0,32.0,70,30.16,8.0,WSW,5.8,-,N/A,,Clear,250,2013-01-10 00:53:00
8:53 PM,41.0,32.0,70,30.14,9.0,WSW,5.8,-,N/A,,Clear,240,2013-01-10 01:53:00
9:53 PM,42.1,32.0,67,30.16,10.0,WSW,6.9,-,N/A,,Clear,250,2013-01-10 02:53:00
10:53 PM,44.1,30.9,60,30.17,10.0,West,4.6,-,N/A,,Clear,260,2013-01-10 03:53:00
11:53 PM,44.1,30.0,58,30.18,10.0,West,11.5,17.3,N/A,,Clear,270,2013-01-10 04:53:00